RH
60 47 35 15 8 9 11 10 15 16 19 21 25 32 40 45 40 41 44 55 68 63 50 38 36 40 46 55 61 75 88 84 85 63 80 80 91 98 99 98 91 95 97 88
48 63 68 54 8 8 11 12 16 17 17 23 22 24 36 42 42 41 36 41 46 54 60 63 47 43 52 58 63 65 82 86 91 64 66 73 91 89 98 93 96 93 98 94
27 47 62 59 28 7 11 9 14 22 22 20 25 25 26 37 40 41 46 38 35 40 48 61 56 48 48 57 67 59 69 83 85 87 79 88 88 91 91 94 98 97 98 98
7 21 48 56 53 20 9 12 10 15 26 28 27 27 30 28 34 41 41 43 44 42 35 36 45 44 46 53 66 60 62 63 75 59 66 78 84 88 85 96 96 98 97 98
14 7 14 42 57 51 25 12 12 11 13 22 26 26 26 32 35 32 37 42 39 44 51 38 24 29 45 45 54 63 64 65 71 48 62 81 77 78 74 85 82 93 93 96
30 18 8 10 35 59 53 50 32 12 10 15 19 24 30 30 31 35 34 36 41 40 38 40 36 26 42 46 47 51 63 78 83 63 58 60 56 56 63 78 81 89 86 93
42 34 23 11 8 26 56 63 61 51 22 11 11 13 14 25 34 35 34 37 35 39 42 37 35 38 39 42 48 55 58 72 96 86 62 60 44 55 55 66 69 81 91 90
51 45 36 26 14 8 21 41 58 72 60 24 26 11 10 12 16 26 34 35 34 36 36 38 31 40 50 50 53 54 63 72 87 91 92 51 37 43 47 58 50 58 65 79
57 55 49 41 30 19 11 18 28 53 66 56 52 24 63 37 13 13 19 34 36 36 34 37 36 36 56 49 44 52 67 69 85 93 94 90 46 42 44 50 47 50 55 55
68 60 58 52 44 34 22 15 15 26 43 56 65 63 63 78 73 20 13 19 34 37 41 43 48 55 51 52 48 45 58 64 75 78 88 45 31 44 39 39 39 43 46 42
80 73 65 62 56 49 39 26 18 17 21 35 45 58 70 76 60 32 18 16 26 42 48 48 47 66 61 52 43 38 37 46 56 76 86 59 36 34 35 33 32 35 41 42
83 86 80 74 67 59 53 43 30 22 18 22 27 36 58 60 68 53 28 16 20 28 40 48 52 50 47 51 43 40 40 28 35 44 29 24 28 25 27 28 28 31 32 30
85 88 88 85 78 70 63 56 49 37 31 26 28 25 43 41 44 55 65 33 16 17 20 27 36 38 46 44 31 33 31 32 31 26 16 20 19 20 21 27 31 29 29 29
98 98 91 92 86 79 76 68 62 54 44 35 30 31 28 28 32 44 56 68 54 36 19 21 22 19 23 28 25 18 22 21 21 19 13 17 15 16 14 19 24 28 28 26
99 100 98 92 92 83 82 79 74 65 56 45 40 40 32 25 23 31 39 50 47 24 20 22 22 18 18 14 13 6 7 10 14 12 8 7 11 14 13 15 16 24 26 26
98 100 98 92 94 88 87 82 75 66 62 63 57 49 40 33 26 23 22 28 34 32 28 26 24 22 26 20 16 12 6 7 9 10 9 8 6 8 12 16 18 21 24 23
99 98 99 93 93 92 89 89 83 84 81 67 62 52 25 25 26 28 29 30 34 37 35 28 28 28 34 30 23 25 8 7 8 10 10 9 8 9 7 10 14 16 16 15
100 100 100 97 92 88 88 89 91 89 84 79 68 49 43 40 38 36 32 30 32 29 29 24 22 27 32 21 15 19 18 10 11 10 9 8 8 10 8 7 7 8 10 12
100 100 100 100 99 94 92 97 95 93 88 87 79 64 56 51 41 34 34 35 38 34 30 31 30 30 20 12 14 20 29 25 10 11 11 9 8 9 9 7 8 8 9 11
98 98 99 100 99 98 97 96 90 87 81 90 67 65 70 61 54 49 45 42 41 40 34 31 31 15 13 26 23 24 26 34 33 27 12 8 7 8 11 8 8 10 11 13
98 97 99 98 98 97 97 96 88 78 73 71 57 54 49 56 54 52 50 46 46 44 38 36 34 22 20 20 14 13 12 12 14 18 19 12 8 8 8 11 10 9 12 13
100 99 98 98 98 97 95 96 83 71 62 59 48 39 30 35 35 43 51 51 48 41 52 49 38 21 25 18 14 18 26 29 34 32 26 32 26 8 8 10 10 9 10 14
99 98 98 97 96 97 96 87 70 61 68 53 45 39 32 32 29 45 47 56 58 49 55 41 23 23 22 25 29 33 42 43 42 45 42 32 22 12 8 8 9 11 11 13
97 98 97 92 85 89 74 66 60 56 55 80 52 36 35 34 37 48 53 60 54 55 55 33 22 24 28 31 30 33 35 36 36 40 46 50 20 15 11 10 10 11 12 14
97 98 92 85 78 71 65 61 72 75 76 94 50 39 38 39 42 46 53 59 45 52 32 24 29 30 35 40 43 40 38 36 33 31 39 57 58 26 20 14 15 14 16 20
98 94 86 79 74 81 82 73 79 94 96 95 79 51 49 47 50 57 55 55 40 30 29 34 40 46 46 45 42 42 40 42 55 61 48 45 51 65 30 25 22 23 24 27
97 87 83 90 87 87 79 85 95 97 98 95 94 71 55 55 57 66 51 37 31 32 35 40 42 44 45 43 44 50 48 58 60 82 76 66 54 61 66 33 30 31 38 53
Wind_Speed
15 13 13 17 17 13 8 8 4 5 8 8 10 13 13 10 6 3 2 2 4 5 7 5 7 9 10 12 12 11 11 7 10 7 3 20 21 22 22 5 8 17 7 8
14 15 14 11 15 16 9 7 8 7 6 8 11 10 7 5 5 3 2 4 5 5 7 5 6 9 9 10 11 10 11 8 10 5 3 10 16 22 18 15 12 9 8 13
16 14 14 13 11 15 14 10 5 8 7 5 7 8 7 5 4 4 3 3 4 7 7 7 7 9 7 9 10 10 10 7 6 7 14 18 18 18 19 19 9 18 18 30
17 16 14 15 10 13 15 11 10 7 5 4 2 3 4 4 2 3 4 4 4 6 5 9 6 7 7 8 8 10 10 8 12 17 16 12 14 14 15 15 15 12 22 22
17 17 16 14 11 10 13 14 11 8 5 3 2 1 3 4 4 4 4 5 6 6 7 8 11 10 8 6 9 11 11 7 19 19 9 11 18 11 8 8 10 15 22 26
16 16 17 15 13 10 9 10 11 10 8 5 3 2 3 4 5 5 5 5 6 8 8 8 7 6 9 11 11 11 11 12 16 6 14 17 5 7 6 8 9 9 12 16
15 14 15 15 14 11 9 9 8 8 8 6 6 5 4 4 5 6 7 7 7 7 7 9 10 10 10 12 11 11 11 13 9 11 15 3 6 10 8 8 6 6 8 9
13 13 13 14 13 12 10 9 9 8 6 6 8 7 7 6 6 7 8 9 8 8 9 9 6 4 5 6 9 9 9 10 6 6 12 16 5 5 7 9 7 7 7 7
11 11 12 13 14 13 11 9 9 10 8 4 7 6 10 10 9 9 8 8 9 9 9 7 4 2 3 2 5 8 10 10 8 5 4 3 4 7 8 11 5 6 7 6
11 11 11 12 14 15 14 11 10 9 10 7 8 10 11 12 11 10 11 10 9 10 8 7 4 3 4 3 4 6 10 11 15 14 7 10 10 9 7 5 7 8 7 7
11 12 13 12 13 14 16 14 12 11 9 9 9 11 13 11 11 11 10 11 5 6 6 4 4 4 4 7 8 8 7 6 5 5 8 7 2 6 6 8 11 8 7 8
14 13 14 14 15 15 17 16 15 14 12 12 12 11 10 10 11 10 11 9 9 5 5 6 7 9 11 10 6 9 8 10 6 8 7 11 14 14 14 12 10 9 9 8
17 16 17 16 15 16 16 19 18 16 17 16 12 8 9 11 11 13 12 11 12 13 14 16 14 13 15 12 13 15 16 15 20 21 8 10 11 15 11 15 14 11 11 10
18 20 18 18 17 17 17 18 21 20 18 17 7 13 15 16 16 16 15 15 16 16 15 17 21 22 18 22 22 29 27 29 29 33 26 25 23 20 16 14 13 13 12 13
18 19 25 20 19 19 19 19 21 22 18 17 14 17 18 12 16 13 13 13 13 15 19 20 22 24 23 28 32 28 16 14 16 20 15 15 14 14 12 12 14 15 14 11
22 23 24 18 17 21 22 21 19 18 19 21 22 16 18 16 9 9 10 10 13 16 20 22 23 22 19 17 31 22 13 10 13 19 24 22 16 17 20 15 12 13 11 10
23 24 25 24 19 21 23 22 22 23 26 23 17 13 5 7 12 13 14 14 15 16 20 23 23 24 24 32 32 16 16 18 17 19 21 22 20 21 19 18 16 14 13 13
28 27 27 24 24 23 24 24 23 23 25 26 11 11 13 13 17 18 16 15 16 20 23 26 25 25 25 24 15 9 14 13 14 19 18 13 17 25 24 23 22 18 17 16
33 31 30 30 28 27 24 24 25 24 26 21 19 22 18 11 11 12 14 19 22 25 27 26 20 26 21 19 20 18 20 21 22 22 21 21 19 19 27 25 23 21 20 19
35 35 34 35 34 30 27 26 26 28 33 40 38 31 29 22 20 16 13 12 10 14 16 16 22 37 18 12 17 21 20 21 27 27 30 33 27 20 24 25 24 22 22 22
42 41 40 39 34 29 25 16 13 12 16 18 21 18 21 19 22 22 11 9 7 8 10 11 12 27 7 6 13 16 14 15 17 21 19 22 28 30 27 28 28 25 25 24
42 42 40 38 35 26 16 14 14 16 15 15 14 13 13 16 16 14 10 12 8 8 10 9 10 6 11 18 21 24 26 29 30 32 37 31 24 31 32 28 30 30 29 27
42 40 39 24 20 25 17 23 19 16 12 13 12 17 16 13 13 12 10 8 9 10 10 14 24 17 17 21 18 13 10 14 17 21 24 31 25 27 37 35 32 31 32 31
41 43 34 24 20 20 37 41 26 22 18 16 19 18 15 17 13 13 7 11 9 9 14 26 24 25 22 18 19 21 21 22 22 24 26 23 26 24 27 40 36 34 33 31
48 36 23 40 49 51 26 17 23 21 26 19 20 19 20 16 13 9 11 8 12 12 17 17 15 16 20 24 27 29 32 35 35 33 28 26 25 26 24 32 39 35 34 32
50 42 46 53 45 36 39 40 34 31 30 27 24 22 13 18 12 16 19 13 19 22 18 18 18 21 24 28 33 37 40 39 30 22 24 26 28 26 25 28 36 33 32 32
53 63 69 66 57 30 28 28 31 35 36 34 22 15 18 14 16 23 25 44 41 30 25 24 27 30 36 37 38 38 35 33 27 21 20 23 27 29 26 28 32 35 32 32
Wind_Direction
10 15 23 21 25 29 49 45 42 76 113 118 140 134 139 153 168 185 172 306 328 339 354 332 1 353 350 347 0 359 347 318 308 304 3 22 22 15 22 335 314 308 278 307
6 3 359 16 29 32 46 52 67 78 114 148 151 148 149 161 167 168 252 278 281 308 331 337 344 349 346 340 349 352 347 343 334 347 320 351 5 8 11 14 337 313 323 331
13 8 2 11 25 33 35 40 67 78 97 132 145 153 165 172 203 237 228 257 284 303 302 303 307 329 340 328 335 339 328 310 299 273 296 306 318 352 358 19 350 328 356 343
13 10 9 14 24 29 34 39 52 63 110 130 159 222 193 188 221 247 255 269 287 315 314 312 290 311 327 321 325 330 322 305 308 312 300 295 319 327 345 358 15 2 5 6
7 7 11 19 20 23 31 30 34 50 65 64 81 170 239 254 252 248 266 275 294 298 304 319 309 296 304 307 322 329 322 308 322 328 303 321 310 314 330 324 7 29 26 27
3 6 5 11 19 11 17 22 27 28 26 29 14 325 262 235 264 277 276 280 285 297 311 316 316 301 294 298 308 319 316 322 335 301 322 322 316 351 338 338 345 360 20 23
348 359 2 1 8 12 9 1 359 8 10 14 6 354 312 274 259 266 282 292 296 292 297 302 301 286 283 290 293 296 308 315 328 299 339 354 328 331 331 324 339 1 4 18
336 342 348 350 353 357 2 1 354 340 339 338 351 356 357 326 301 282 273 277 285 288 295 305 298 300 288 284 279 280 290 301 319 307 312 299 315 334 331 332 355 352 6 10
325 328 333 336 336 343 347 354 354 350 329 321 327 337 352 347 331 309 297 287 290 284 291 290 268 232 263 250 279 275 266 276 267 313 310 262 319 329 329 326 328 354 354 12
322 316 318 323 324 328 334 339 344 347 338 320 295 297 312 324 322 315 304 295 294 290 281 278 267 246 238 254 240 260 270 272 260 263 262 276 297 292 318 323 326 334 338 355
311 307 306 310 313 318 320 325 328 330 332 317 314 304 298 305 317 311 307 311 310 294 288 277 284 258 248 248 241 255 251 260 241 201 225 268 288 299 285 303 319 315 305 317
299 301 297 300 303 308 310 314 317 319 323 314 309 305 294 298 308 306 304 283 279 279 277 290 291 283 279 275 275 235 243 232 253 239 250 271 283 287 295 295 296 297 298 300
288 295 297 293 296 299 303 307 309 313 315 315 309 298 302 299 295 300 297 289 280 275 272 277 281 276 279 278 283 271 271 265 262 279 292 274 289 292 289 261 274 271 273 277
283 289 292 291 291 292 296 299 303 307 311 313 324 305 304 299 293 294 289 286 276 283 278 273 272 278 285 281 284 284 282 283 282 283 293 283 273 284 268 259 258 256 258 261
283 287 298 298 284 288 290 294 296 299 303 296 306 304 302 296 302 299 296 286 282 275 274 273 277 284 288 293 289 291 309 298 290 301 313 303 279 267 275 268 250 247 246 251
294 292 303 308 287 285 287 290 289 296 298 303 309 299 297 291 258 294 297 287 273 273 279 282 280 281 283 279 291 340 328 309 292 292 294 297 302 290 275 275 267 255 256 263
268 275 278 295 294 287 289 284 289 295 298 304 310 300 220 237 245 272 280 273 274 275 279 281 282 281 273 276 289 326 306 270 262 261 272 281 288 287 277 267 270 266 264 269
254 258 263 273 283 288 288 288 286 286 288 291 272 259 259 270 272 271 272 261 270 276 274 275 279 273 265 277 338 316 314 306 293 259 257 280 272 262 271 267 266 267 264 261
248 250 254 258 264 275 286 284 282 281 276 270 257 264 279 266 263 258 263 270 279 278 271 273 269 263 256 320 297 286 264 254 253 255 253 260 273 262 254 260 261 261 260 260
241 245 248 254 260 268 276 277 279 277 271 259 263 268 253 259 262 265 276 282 267 273 275 274 259 270 305 279 309 312 296 270 259 265 265 272 260 250 248 257 258 252 251 251
237 241 243 248 258 265 266 259 238 242 251 261 271 255 246 240 245 251 259 258 264 263 265 251 268 282 262 256 301 284 279 273 274 285 284 281 259 243 232 233 244 250 248 250
249 245 244 248 253 254 243 221 211 223 241 245 229 221 210 217 228 233 244 245 239 244 251 244 258 306 229 273 280 276 275 275 283 285 284 283 273 247 238 235 232 233 237 240
234 233 239 245 239 228 218 204 196 194 233 240 230 217 212 211 217 226 232 228 231 246 237 249 264 273 271 288 279 273 284 303 300 297 290 280 272 255 236 233 230 230 233 235
222 223 221 226 227 225 235 239 245 237 220 231 225 214 215 217 219 227 233 230 232 235 241 255 270 276 274 249 262 270 268 281 296 312 301 299 265 267 249 234 230 230 232 235
212 212 221 234 236 237 235 219 211 211 220 227 218 215 225 226 223 214 223 221 228 232 254 270 258 256 253 257 266 277 287 293 297 306 304 300 297 267 262 242 229 230 229 229
219 222 230 237 239 231 230 234 231 230 225 213 211 220 225 227 218 212 210 226 243 260 275 267 262 253 257 268 277 285 294 303 311 311 298 299 293 291 263 248 233 227 228 231
220 232 237 241 246 249 238 231 219 219 216 210 205 215 223 228 223 220 225 240 263 261 261 261 264 268 280 281 280 282 283 291 293 296 300 296 294 286 285 258 238 228 226 227